Weather History for Montego Bay, Jamaica

Change the Weather History Date:

Friday, March 29, 2013

  Actual Average Record
Temperature  
Mean Temperature 78 °F -  
Max Temperature 85 °F 83 °F 90 °F (2014)
Min Temperature 72 °F 74 °F 71 °F (2009)
Cooling Degree Days 14    
Growing Degree Days 28 (Base 50)    
Moisture  
Dew Point 69 °F    
Average Humidity 74    
Maximum Humidity 88    
Minimum Humidity 60    
Precipitation  
Precipitation 0.04 in - - ()
Sea Level Pressure  
Sea Level Pressure 30.03 in    
Wind  
Wind Speed 12 mph ()    
Max Wind Speed 24 mph    
Max Gust Speed -    
Visibility 8.1 miles    
Events Rain    
Averages and records for this station are not official NWS values.
T = Trace of Precipitation, MM = Missing Value Source: Averaged Metar Reports

Daily Weather History Graph

Daily Weather History Graph

Search for Another Location

Airport:

Trip Planner

Search our weather history database for the weather conditions in past years. The results will help you decide how hot, cold, wet, or windy it might be!

Date:

Astronomy

Mar. 29, 2013 Rise Set
Actual Time 6:08 AM EST 6:24 PM EST
Civil Twilight 5:46 AM EST 6:46 PM EST
Nautical Twilight 5:20 AM EST 7:12 PM EST
Astronomical Twilight 4:55 AM EST 7:37 PM EST
Moon 8:54 PM EST 7:39 AM EST
Length of Visible Light 13h 00m
Length of Day
12h 16m
Waning Gibbous, 93% of the Moon is Illuminated
Mar 29
Waning Gibbous
Apr 2
Last Quarter
Apr 10
New
Apr 18
First Quarter
Apr 25
Full

Hourly Weather History & Observations

Time (EST) Temp. Heat Index Dew Point Humidity Pressure Visibility Wind Dir Wind Speed Gust Speed Precip Events Conditions
12:00 AM 73.4 °F - 69.8 °F 88% 30.04 in 6.2 mi East 11.5 mph - N/A Rain Light Rain
1:00 AM 73 °F - 70 °F 87% 30.04 in 12 mi East 8.1 mph - - Rain Light Rain
1:00 AM 73.4 °F - 69.8 °F 88% 30.04 in 6.2 mi East 8.1 mph - N/A Rain Light Rain
2:00 AM 73.4 °F - 69.8 °F 88% 30.01 in 6.2 mi East 10.4 mph - N/A   Mostly Cloudy
3:00 AM 75.2 °F - 69.8 °F 83% 29.98 in 6.2 mi East 8.1 mph - N/A   Mostly Cloudy
4:00 AM 74 °F - 69 °F 80% 30.00 in 12 mi East 9.2 mph - -   Partly Cloudy
4:00 AM 73.4 °F - 69.8 °F 88% 29.98 in 6.2 mi East 9.2 mph - N/A   Scattered Clouds
5:00 AM 73.4 °F - 68.0 °F 83% 30.01 in 6.2 mi East 10.4 mph - N/A   Partly Cloudy
6:00 AM 75.2 °F - 68.0 °F 78% 30.01 in 6.2 mi East 13.8 mph - N/A   Scattered Clouds
7:00 AM 74 °F - 70 °F 84% 30.06 in 16 mi ESE 15.0 mph - -   Haze
7:00 AM 75.2 °F - 69.8 °F 83% 30.04 in 6.2 mi ESE 15.0 mph - N/A   Mostly Cloudy
8:00 AM 75.2 °F - 69.8 °F 83% 30.06 in 6.2 mi East 11.5 mph - N/A Rain Light Rain Showers
9:00 AM 77.0 °F - 69.8 °F 78% 30.06 in 6.2 mi East 13.8 mph - N/A   Mostly Cloudy
10:00 AM 78 °F - 69 °F 66% 30.09 in 14 mi East 20.7 mph - - Rain Light Rain Showers
10:00 AM 78.8 °F - 69.8 °F 74% 30.06 in 6.2 mi East 20.7 mph - N/A Rain Light Rain Showers
11:00 AM 78.8 °F - 69.8 °F 74% 30.06 in 6.2 mi East 16.1 mph - N/A   Mostly Cloudy
12:00 PM 82.4 °F 86.3 °F 69.8 °F 66% 30.04 in 6.2 mi East 23.0 mph - N/A   Mostly Cloudy
1:00 PM 81 °F - 70 °F 62% 30.05 in 16 mi East 23.0 mph - -  
1:00 PM 80.6 °F 83.9 °F 69.8 °F 70% 30.04 in 6.2 mi East 23.0 mph - N/A   Scattered Clouds
2:00 PM 80.6 °F 83.9 °F 69.8 °F 70% 30.01 in 6.2 mi East 24.2 mph - N/A   Scattered Clouds
3:00 PM 80.6 °F 83.9 °F 69.8 °F 70% 30.01 in 6.2 mi East 21.9 mph - N/A   Scattered Clouds
4:00 PM 79 °F - 68 °F 60% 30.00 in 16 mi East 23.0 mph - -   Mostly Cloudy
4:00 PM 78.8 °F - 68.0 °F 69% 29.98 in 6.2 mi East 23.0 mph - N/A   Mostly Cloudy
5:00 PM 78.8 °F - 68.0 °F 69% 30.01 in 6.2 mi East 17.3 mph - N/A   Mostly Cloudy
6:00 PM 77.0 °F - 66.2 °F 69% 30.01 in 6.2 mi East 17.3 mph - N/A   Mostly Cloudy
7:00 PM 77 °F - 66 °F 61% 30.04 in 12 mi East 12.7 mph - -   Mostly Cloudy
7:00 PM 77.0 °F - 66.2 °F 69% 30.04 in 6.2 mi East 12.7 mph - N/A   Mostly Cloudy
8:00 PM 77.0 °F - 66.2 °F 69% 30.04 in 6.2 mi ESE 11.5 mph - N/A   Mostly Cloudy
9:00 PM 77.0 °F - 66.2 °F 69% 30.04 in 6.2 mi ESE 15.0 mph - N/A   Scattered Clouds
10:00 PM 77 °F - 66 °F 62% 30.07 in 12 mi ESE 13.8 mph - -   Scattered Clouds
10:00 PM - - - N/A% 30.06 in 6.2 mi ESE 13.8 mph - N/A   Partly Cloudy
11:00 PM 77.0 °F - 66.2 °F 69% 30.06 in 6.2 mi ESE 13.8 mph - N/A   Partly Cloudy